EW5545 Weather Reports


time (UTC)temp
C
wind
direction
speed
KPH
gust
KPH
rain 1hr
cm
rain 24hr
cm
rain mn
cm
humidity
%
barometer
mb
20260507214015 15 170 6.4 11.3 0.00 0.74 0.74 60 1012.8
20260507213514 15 176 6.4 14.5 0.00 0.74 0.74 60 1012.8
20260507213008 15 172 6.4 14.5 0.00 0.74 0.74 61 1012.9
20260507212506 14 182 4.8 12.9 0.00 0.74 0.74 62 1012.9
20260507211006 13 179 1.6 4.8 0.00 0.74 0.74 66 1012.9
20260507210507 13 169 1.6 3.2 0.00 0.74 0.74 67 1013.0
20260507205507 13 67 1.6 4.8 0.00 0.74 0.74 69 1013.0
20260507205005 13 29 0.0 4.8 0.00 0.74 0.74 71 1013.0
20260507204506 13 175 0.0 1.6 0.00 0.74 0.74 72 1013.1
20260507204011 13 140 0.0 4.8 0.00 0.74 0.74 74 1013.1
20260507203507 13 169 1.6 4.8 0.00 0.74 0.74 76 1013.2
20260507202007 13 181 0.0 3.2 0.00 0.74 0.74 76 1013.5
20260507201007 13 176 1.6 4.8 0.00 0.74 0.74 76 1013.7
20260507200506 13 176 3.2 4.8 0.00 0.74 0.74 75 1013.7
20260507200007 13 181 3.2 4.8 0.00 0.74 0.74 75 1013.7
20260507195507 13 184 3.2 4.8 0.00 0.74 0.74 74 1013.7
20260507195007 13 184 1.6 4.8 0.00 0.74 0.74 73 1013.7
20260507194506 13 178 1.6 4.8 0.00 0.74 0.74 73 1013.7
20260507193005 14 177 3.2 4.8 0.00 0.74 0.74 72 1013.5
20260507192505 14 181 3.2 8.0 0.00 0.74 0.74 71 1013.4
20260507192008 14 168 4.8 9.7 0.00 0.74 0.74 71 1013.3
20260507191506 14 174 4.8 12.9 0.00 0.74 0.74 71 1013.2
20260507191007 14 174 8.0 11.3 0.00 0.74 0.74 71 1013.0
20260507190008 15 178 4.8 12.9 0.00 0.74 0.74 70 1012.9
20260507185507 15 162 4.8 12.9 0.00 0.74 0.74 70 1012.8
20260507185008 15 179 3.2 9.7 0.00 0.74 0.74 69 1012.8
20260507184506 15 163 4.8 11.3 0.00 0.74 0.74 69 1012.9
20260507184009 15 168 3.2 9.7 0.00 0.74 0.74 69 1012.8
20260507183008 15 182 3.2 9.7 0.00 0.74 0.74 67 1012.9
20260507182506 15 176 8.0 12.9 0.00 0.74 0.74 67 1012.9
20260507182006 15 185 6.4 14.5 0.00 0.74 0.74 66 1012.8
20260507181507 15 170 4.8 11.3 0.00 0.74 0.74 65 1012.8
20260507181005 15 171 6.4 16.1 0.00 0.74 0.74 65 1012.8
20260507180507 15 162 4.8 12.9 0.00 0.74 0.74 64 1012.8
20260507180010 15 172 4.8 9.7 0.00 0.74 0.74 63 1012.8
20260507175507 15 167 4.8 8.0 0.00 0.74 0.74 61 1012.8
20260507175008 15 173 3.2 9.7 0.00 0.74 0.74 60 1012.8
20260507174507 16 176 3.2 9.7 0.00 0.74 0.74 59 1012.9
20260507174007 16 172 1.6 4.8 0.00 0.74 0.74 59 1012.8
20260507173011 16 176 3.2 4.8 0.00 0.74 0.74 57 1012.8
20260507172007 16 170 3.2 4.8 0.00 0.74 0.74 54 1012.9
20260507171506 16 186 4.8 11.3 0.00 0.74 0.74 53 1013.0
20260507171005 17 186 6.4 9.7 0.00 0.74 0.74 52 1013.1
20260507170510 17 196 1.6 9.7 0.00 0.74 0.74 51 1013.0
20260507170005 17 183 4.8 14.5 0.00 0.74 0.74 50 1012.8
20260507165507 17 166 6.4 12.9 0.00 0.74 0.74 49 1012.8
20260507165007 17 191 4.8 16.1 0.00 0.74 0.74 47 1012.9
20260507164505 17 164 4.8 12.9 0.00 0.74 0.74 46 1013.0
20260507164007 18 174 6.4 11.3 0.00 0.74 0.74 45 1012.9
20260507163507 18 176 4.8 11.3 0.00 0.74 0.74 44 1013.0
20260507163011 18 171 4.8 16.1 0.00 0.74 0.74 43 1013.0
20260507162505 18 197 8.0 14.5 0.00 0.74 0.74 42 1013.1
20260507162006 18 178 8.0 16.1 0.00 0.74 0.74 41 1013.0
20260507161505 18 161 9.7 19.3 0.00 0.74 0.74 43 1012.8
20260507161008 18 184 11.3 19.3 0.00 0.74 0.74 42 1012.8
20260507160506 18 205 9.7 22.5 0.00 0.74 0.74 42 1012.7
20260507155505 18 196 14.5 27.4 0.00 0.74 0.74 41 1012.8
20260507155007 19 198 11.3 22.5 0.00 0.74 0.74 41 1012.8
20260507154006 19 199 6.4 24.1 0.00 0.74 0.74 44 1012.6
20260507153511 19 202 11.3 27.4 0.00 0.74 0.74 44 1012.6
20260507152508 19 204 12.9 24.1 0.00 0.74 0.74 44 1012.5
20260507152005 19 180 16.1 25.7 0.00 0.74 0.74 41 1012.7
20260507151507 19 181 12.9 25.7 0.00 0.74 0.74 45 1012.6
20260507151007 19 190 9.7 25.7 0.00 0.74 0.74 46 1012.7
20260507150507 19 188 16.1 25.7 0.00 0.74 0.74 44 1012.8
20260507145505 20 192 14.5 32.2 0.00 0.74 0.74 43 1012.9
20260507145011 20 168 12.9 27.4 0.00 0.74 0.74 47 1012.9
20260507144507 20 201 19.3 35.4 0.00 0.74 0.74 45 1013.0
20260507144007 20 207 14.5 24.1 0.00 0.74 0.74 45 1012.9
20260507143507 20 207 17.7 29.0 0.00 0.74 0.74 44 1012.9
20260507143007 20 197 16.1 32.2 0.00 0.74 0.74 45 1012.9
20260507142506 20 200 20.9 33.8 0.00 0.74 0.74 43 1012.9
20260507142007 20 202 16.1 29.0 0.00 0.74 0.74 44 1012.9
20260507141505 20 200 12.9 25.7 0.00 0.74 0.74 46 1012.9
20260507141007 20 183 12.9 24.1 0.00 0.74 0.74 46 1012.9
20260507140505 20 190 16.1 27.4 0.00 0.74 0.74 46 1012.8
20260507140006 20 200 11.3 27.4 0.00 0.74 0.74 51 1012.7
20260507135507 19 195 14.5 27.4 0.00 0.74 0.74 48 1012.8
20260507134506 18 181 17.7 29.0 0.00 0.74 0.74 56 1012.9
20260507134007 18 218 16.1 27.4 0.00 0.74 0.74 57 1012.9
20260507133506 18 204 16.1 27.4 0.00 0.74 0.74 60 1013.0
20260507133007 18 192 19.3 27.4 0.00 0.74 0.74 59 1013.2
20260507132505 18 176 14.5 25.7 0.00 0.74 0.74 62 1013.2
20260507132006 18 221 19.3 32.2 0.00 0.74 0.74 57 1013.3
20260507130507 18 209 12.9 32.2 0.00 0.74 0.74 61 1013.2
20260507125507 19 218 14.5 29.0 0.00 0.74 0.74 55 1013.4
20260507125007 19 194 12.9 22.5 0.00 0.74 0.74 58 1013.3
20260507124507 18 189 14.5 32.2 0.00 0.74 0.74 59 1013.5
20260507124007 18 201 14.5 29.0 0.00 0.74 0.74 60 1013.6
20260507123516 18 202 14.5 33.8 0.00 0.74 0.74 59 1013.6
20260507123007 18 191 16.1 25.7 0.00 0.74 0.74 55 1013.6
20260507122506 18 210 14.5 25.7 0.00 0.74 0.74 60 1013.4
20260507122010 18 184 12.9 32.2 0.00 0.74 0.74 65 1013.4
20260507121507 18 179 16.1 32.2 0.00 0.74 0.74 67 1013.4
20260507121011 18 207 19.3 29.0 0.00 0.74 0.74 67 1013.4
20260507120510 19 194 17.7 32.2 0.00 0.74 0.74 66 1013.5
20260507120007 19 203 17.7 33.8 0.00 0.74 0.74 67 1013.7
20260507115510 19 195 20.9 32.2 0.00 0.74 0.74 65 1013.8
20260507115005 19 186 14.5 32.2 0.00 0.74 0.74 69 1013.7
20260507114511 18 193 16.1 32.2 0.00 0.74 0.74 71 1013.6
20260507114007 18 204 20.9 38.6 0.00 0.74 0.74 69 1013.7
20260507113507 18 205 22.5 38.6 0.00 0.74 0.74 67 1013.7
20260507113006 18 189 11.3 32.2 0.00 0.74 0.74 69 1013.5
20260507112505 18 203 19.3 35.4 0.00 0.74 0.74 70 1013.7
20260507112008 18 204 11.3 32.2 0.00 0.74 0.74 72 1013.7
20260507111506 18 218 19.3 35.4 0.00 0.74 0.74 70 1013.7
20260507111006 19 205 22.5 37.0 0.00 0.74 0.74 67 1013.9
20260507110505 19 205 16.1 32.2 0.00 0.74 0.74 70 1013.7
20260507110006 18 188 14.5 37.0 0.00 0.74 0.74 72 1013.8
20260507105505 18 200 25.7 37.0 0.00 0.74 0.74 72 1013.8
20260507105009 18 184 16.1 33.8 0.00 0.74 0.74 73 1013.9
20260507104506 18 202 16.1 37.0 0.00 0.74 0.74 73 1013.8
20260507104007 18 200 20.9 40.2 0.00 0.74 0.74 74 1013.9
20260507103506 18 199 17.7 40.2 0.00 0.74 0.74 75 1014.0
20260507103007 18 188 19.3 32.2 0.00 0.74 0.74 74 1014.2
20260507102506 18 199 19.3 35.4 0.00 0.74 0.74 75 1014.1
20260507102007 18 185 16.1 37.0 0.00 0.74 0.74 75 1014.0
20260507101507 18 185 17.7 40.2 0.00 0.74 0.74 76 1014.1
20260507101007 18 194 20.9 33.8 0.00 0.74 0.74 76 1014.4
20260507100507 18 179 16.1 32.2 0.00 0.74 0.74 76 1014.3
20260507100007 18 186 16.1 32.2 0.00 0.74 0.74 76 1014.5
20260507095507 18 194 14.5 25.7 0.00 0.74 0.74 76 1014.4
20260507095021 18 186 11.3 25.7 0.00 0.74 0.74 78 1014.4
20260507094505 18 206 16.1 27.4 0.00 0.74 0.74 79 1014.6
20260507094016 17 164 16.1 29.0 0.00 0.74 0.74 81 1014.5
20260507093509 17 187 14.5 29.0 0.00 0.74 0.74 83 1014.5
20260507093007 17 191 16.1 25.7 0.00 0.74 0.74 85 1014.4
20260507092506 17 193 14.5 24.1 0.00 0.74 0.74 88 1014.3
20260507092007 16 178 16.1 32.2 0.00 0.74 0.74 88 1014.3
20260507090507 15 199 19.3 32.2 0.00 0.74 0.74 83 1014.3
20260507090007 15 186 11.3 32.2 0.00 0.74 0.74 83 1014.2
20260507085505 15 175 16.1 35.4 0.00 0.74 0.74 83 1014.1
20260507085007 15 179 14.5 29.0 0.00 0.74 0.74 83 1014.1
20260507084506 15 167 16.1 27.4 0.00 0.74 0.74 83 1013.9
20260507083510 15 165 9.7 19.3 0.00 0.74 0.74 83 1013.8
20260507083005 15 171 9.7 22.5 0.00 0.74 0.74 83 1013.8
20260507082505 15 173 11.3 24.1 0.00 0.74 0.74 83 1013.8
20260507082007 15 167 12.9 24.1 0.00 0.74 0.74 82 1013.9
20260507081506 15 181 14.5 22.5 0.00 0.74 0.74 82 1013.9
20260507081006 15 169 12.9 24.1 0.00 0.74 0.74 82 1013.9
20260507080507 15 193 9.7 19.3 0.00 0.74 0.74 82 1013.7
20260507080013 15 179 14.5 24.1 0.00 0.74 0.74 82 1013.8
20260507075511 15 173 11.3 22.5 0.00 0.74 0.74 82 1013.7
20260507074505 15 181 8.0 22.5 0.00 0.74 0.74 82 1013.5
20260507074007 15 154 8.0 16.1 0.00 0.74 0.74 82 1013.8
20260507073507 14 173 8.0 22.5 0.00 0.74 0.74 82 1013.9
20260507073007 14 167 11.3 22.5 0.00 0.74 0.74 83 1014.2
20260507072507 14 180 6.4 19.3 0.00 0.74 0.74 83 1014.3
20260507072007 14 175 9.7 19.3 0.00 0.74 0.74 83 1014.5
20260507071506 14 174 11.3 19.3 0.00 0.74 0.74 83 1014.6
20260507070010 14 165 9.7 20.9 0.03 0.74 0.74 83 1014.7
20260507065005 14 162 8.0 16.1 0.03 0.74 0.74 83 1014.7
20260507064507 14 159 9.7 20.9 0.05 0.74 0.74 83 1014.9
20260507064010 14 166 9.7 20.9 0.05 0.74 0.74 83 1014.9
20260507063510 14 173 9.7 16.1 0.05 0.74 0.74 83 1014.9
20260507063007 14 181 8.0 14.5 0.05 0.74 0.74 83 1014.9
20260507062507 14 188 3.2 9.7 0.05 0.74 0.74 83 1014.6
20260507060005 14 175 0.0 1.6 0.05 0.71 0.71 83 1015.3
20260507055516 14 173 0.0 4.8 0.08 0.71 0.71 83 1015.5
20260507055011 14 179 1.6 4.8 0.10 0.71 0.71 83 1015.6
20260507054516 14 174 1.6 4.8 0.10 0.71 0.71 83 1015.6
20260507054007 14 179 1.6 4.8 0.10 0.71 0.71 83 1015.7
20260507053508 14 170 1.6 4.8 0.13 0.71 0.71 83 1015.6
20260507053005 14 192 3.2 4.8 0.13 0.71 0.71 83 1015.7
20260507052507 14 175 1.6 3.2 0.13 0.71 0.71 83 1015.5
20260507051504 14 178 0.0 3.2 0.13 0.71 0.71 83 1015.3
20260507050507 14 174 1.6 4.8 0.10 0.69 0.69 83 1015.4
20260507044507 14 185 3.2 8.0 0.05 0.61 0.61 84 1015.5
20260507044008 14 203 3.2 4.8 0.05 0.61 0.61 84 1015.6
20260507043507 14 203 1.6 4.8 0.05 0.58 0.58 84 1015.4
20260507043007 14 131 0.0 1.6 0.05 0.58 0.58 84 1014.8
20260507042506 14 148 1.6 4.8 0.08 0.58 0.58 84 1014.5
20260507042007 14 161 3.2 4.8 0.13 0.58 0.58 85 1014.4
20260507041506 14 151 1.6 4.8 0.13 0.58 0.58 85 1014.4
20260507041006 15 206 0.0 0.0 0.15 0.58 0.58 85 1014.5
20260507040005 15 206 0.0 0.0 0.20 0.58 0.58 85 1014.6
20260507035507 14 206 0.0 0.0 0.23 0.58 0.58 85 1014.8
20260507034505 14 206 0.0 3.2 0.23 0.56 0.56 86 1015.0
20260507034007 14 206 1.6 3.2 0.23 0.56 0.56 86 1015.0
20260507033506 14 182 1.6 3.2 0.23 0.53 0.53 86 1014.7
20260507033011 14 217 1.6 4.8 0.23 0.53 0.53 86 1015.1
20260507032008 14 202 3.2 8.0 0.18 0.46 0.46 86 1015.1
20260507031505 14 193 3.2 9.7 0.18 0.46 0.46 86 1015.1
20260507031006 14 195 3.2 11.3 0.15 0.43 0.43 86 1015.1
20260507030008 14 200 6.4 11.3 0.10 0.38 0.38 86 1015.2
20260507025006 14 212 1.6 4.8 0.08 0.33 0.33 86 1014.8
20260507024507 14 212 1.6 4.8 0.08 0.33 0.33 86 1014.7
20260507024011 14 217 3.2 4.8 0.08 0.33 0.33 87 1014.6
20260507023507 14 204 3.2 4.8 0.08 0.30 0.30 87 1014.4
20260507023007 14 211 1.6 4.8 0.10 0.30 0.30 87 1014.0
20260507022506 14 173 0.0 3.2 0.13 0.30 0.30 87 1013.7
20260507022006 15 173 0.0 0.0 0.13 0.28 0.28 87 1013.5
20260507021011 15 173 0.0 1.6 0.18 0.28 0.28 87 1013.3
20260507020507 15 71 0.0 1.6 0.20 0.28 0.28 87 1013.3
20260507020015 15 40 0.0 3.2 0.23 0.28 0.28 87 1013.3
20260507015508 15 34 3.2 4.8 0.23 0.28 0.28 87 1013.3
20260507014508 15 133 0.0 3.2 0.23 0.25 0.25 87 1013.7
20260507014007 15 147 0.0 4.8 0.20 0.23 0.23 87 1013.8
20260507013510 15 179 1.6 11.3 0.18 0.23 0.23 87 1014.1
20260507013006 15 207 4.8 11.3 0.18 0.20 0.20 87 1014.3
20260507012006 15 206 4.8 11.3 0.15 0.15 0.15 87 1014.4
20260507011506 15 196 4.8 11.3 0.13 0.15 0.15 88 1014.4
20260507010006 15 192 0.0 1.6 0.05 0.05 0.05 88 1014.0
20260507005511 15 194 0.0 4.8 0.03 0.05 0.05 88 1014.0
20260507005007 15 197 1.6 4.8 0.03 0.05 0.05 88 1014.0
20260507004506 15 193 1.6 4.8 0.05 0.05 0.05 88 1014.0
20260507004007 15 206 1.6 8.0 0.05 0.05 0.05 88 1014.0
20260507003507 15 211 3.2 12.9 0.05 0.05 0.05 88 1014.1
20260507002507 15 195 8.0 19.3 0.03 0.03 0.03 88 1014.1
20260507002006 15 205 3.2 12.9 0.03 0.03 0.03 88 1014.0
20260507001507 15 201 3.2 8.0 0.03 0.03 0.03 88 1014.0
20260507001005 15 203 1.6 8.0 0.03 0.03 0.03 88 1014.0
20260507000511 15 200 1.6 8.0 0.03 0.03 0.03 88 1013.9
20260507000007 15 233 1.6 4.8 0.03 0.03 0.03 88 1013.8
20260506235505 15 203 3.2 4.8 0.03 0.03 0.03 88 1013.6
20260506235007 15 195 1.6 8.0 0.03 0.03 0.03 88 1013.5
20260506234507 15 190 1.6 4.8 0.00 0.00 0.00 88 1013.6
20260506234007 15 209 3.2 4.8 0.00 0.00 0.00 88 1013.4
20260506233507 15 176 1.6 3.2 0.00 0.00 0.00 88 1013.2
20260506233007 15 195 1.6 4.8 0.00 0.00 0.00 88 1013.4
20260506232505 15 168 3.2 8.0 0.00 0.00 0.00 88 1013.5
20260506232006 15 181 3.2 8.0 0.00 0.00 0.00 88 1013.6
20260506231506 15 201 3.2 8.0 0.00 0.00 0.00 88 1013.7
20260506231007 15 211 3.2 4.8 0.00 0.00 0.00 88 1013.7
20260506230507 15 175 1.6 11.3 0.00 0.00 0.00 88 1013.7
20260506225506 15 189 1.6 4.8 0.00 0.00 0.00 88 1013.8
20260506225005 15 179 3.2 8.0 0.00 0.00 0.00 88 1013.9
20260506224007 15 183 3.2 8.0 0.00 0.00 0.00 88 1014.0
20260506223507 15 212 3.2 8.0 0.00 0.00 0.00 88 1014.0
20260506223006 15 212 1.6 8.0 0.00 0.00 0.00 88 1014.0
20260506222506 15 192 6.4 16.1 0.00 0.00 0.00 88 1014.2
20260506222008 15 200 6.4 16.1 0.00 0.00 0.00 88 1014.2
20260506221505 15 203 11.3 16.1 0.00 0.00 0.00 88 1014.1
20260506221007 15 196 12.9 20.9 0.00 0.00 0.00 88 1014.0
20260506220506 15 209 9.7 19.3 0.00 0.00 0.00 88 1014.0
20260506220006 15 189 6.4 19.3 0.00 0.00 0.00 88 1013.9
20260506215007 15 204 9.7 19.3 0.00 0.00 0.00 88 1014.1
20260506214505 15 207 11.3 24.1 0.00 0.00 0.00 88 1014.1